TimeCDT,TemperatureF,Dew PointF,Humidity,Sea Level PressureIn,VisibilityMPH,Wind Direction,Wind SpeedMPH,Gust SpeedMPH,PrecipitationIn,Events,Conditions,WindDirDegrees,DateUTC
12:53 AM,57.9,44.1,60,30.22,10.0,South,12.7,-,N/A,,Clear,180,2013-03-15 05:53:00
1:53 AM,57.9,44.1,60,30.21,10.0,South,13.8,-,N/A,,Clear,190,2013-03-15 06:53:00
2:53 AM,55.9,45.0,67,30.20,10.0,South,11.5,-,N/A,,Clear,190,2013-03-15 07:53:00
3:53 AM,54.0,45.0,72,30.19,10.0,South,9.2,-,N/A,,Clear,190,2013-03-15 08:53:00
4:53 AM,54.0,46.0,75,30.18,10.0,SSW,10.4,-,N/A,,Clear,200,2013-03-15 09:53:00
5:53 AM,54.0,46.9,77,30.18,10.0,SSW,9.2,-,N/A,,Clear,210,2013-03-15 10:53:00
7:53 AM,53.1,46.9,80,30.19,10.0,South,8.1,-,N/A,,Clear,190,2013-03-15 12:53:00
8:53 AM,57.0,48.0,72,30.19,10.0,SSW,12.7,-,N/A,,Clear,200,2013-03-15 13:53:00
9:53 AM,61.0,50.0,67,30.20,10.0,SSW,12.7,-,N/A,,Clear,210,2013-03-15 14:53:00
10:53 AM,66.0,51.1,59,30.19,10.0,SSW,17.3,-,N/A,,Clear,210,2013-03-15 15:53:00
11:53 AM,69.1,50.0,51,30.16,10.0,SSW,18.4,-,N/A,,Clear,210,2013-03-15 16:53:00
12:53 PM,72.0,51.1,48,30.14,10.0,SW,12.7,20.7,N/A,,Clear,220,2013-03-15 17:53:00
1:53 PM,75.0,51.1,43,30.11,10.0,SSW,17.3,-,N/A,,Clear,210,2013-03-15 18:53:00
2:53 PM,75.9,48.9,38,30.06,10.0,SSW,12.7,-,N/A,,Clear,210,2013-03-15 19:53:00
3:53 PM,77.0,48.0,36,30.04,10.0,SW,15.0,26.5,N/A,,Clear,220,2013-03-15 20:53:00
4:53 PM,78.1,46.9,33,30.02,10.0,SSW,17.3,27.6,N/A,,Clear,210,2013-03-15 21:53:00
5:53 PM,77.0,44.1,31,29.99,9.0,SSW,19.6,26.5,N/A,,Clear,210,2013-03-15 22:53:00
6:11 PM,77.0,42.8,29,30.01,9.0,SSW,19.6,25.3,N/A,,Partly Cloudy,200,2013-03-15 23:11:00
6:53 PM,75.0,44.1,33,29.99,10.0,South,13.8,20.7,N/A,,Clear,190,2013-03-15 23:53:00
7:53 PM,70.0,43.0,38,29.98,10.0,South,12.7,-,N/A,,Clear,180,2013-03-16 00:53:00
8:53 PM,66.9,44.1,44,29.98,10.0,South,10.4,-,N/A,,Clear,190,2013-03-16 01:53:00
9:53 PM,66.9,44.1,44,29.98,10.0,South,10.4,-,N/A,,Clear,190,2013-03-16 02:53:00
10:53 PM,66.9,46.0,47,29.97,10.0,SSW,16.1,-,N/A,,Clear,200,2013-03-16 03:53:00
11:53 PM,66.0,46.9,50,29.96,10.0,South,16.1,-,N/A,,Clear,190,2013-03-16 04:53:00